Tracking 30970 objects as of 3-Jul-2025
HD Live streaming from Space Station
objects crossing your sky now

ATLAS 2AS CENTAUR R/B

Track ATLAS 2AS CENTAUR R/B now!
10-day predictions


NORAD ID: 26072
Int'l Code: 2000-007B
Perigee: 259.9 km
Apogee: 6,711.0 km
Inclination: 18.1 °
Period: 162.3 minutes
Semi major axis: 9856 km
RCS: 16.571 m2 (large)
Launch date: February 3, 2000
Source: United States (US)
Launch site: AIR FORCE EASTERN TEST RANGE (AFETR)

Note: This is a ROCKET BODY
Your satellite tracking list
MOLNIYA 3-24
Track 1 satellite(s)




NASA's NSSDC Master Catalog

Two Line Element Set (TLE):
1 26072U 00007B   25183.90207510  .00046622  00000-0  14168-2 0  9999
2 26072  18.0828  79.2179 3272568 344.1035   7.6768  8.87202176324794
Source of the keplerian elements: AFSPC